Meteopurmerend
purmerend
Purmerend - Baaienwijk



My webcam  My webcam


Onweer radar Meer informatie blitzortung!


Regen radar Meer informatie rain snow radar


Bezoek onze andere website:

CandyAppleRed WebdesignWebdesign Purmerend Candy Apple Red

MeteopurmerendBlog

Template documentation
and downloads



Het weer levert geen direct gevaar op.    Er zijn geen waarschuwingen afgegeven.

15 daagse weersverwachting Mölndal (SE)

  • Overzicht
  • Per uur
  • 15 dagen
  • Extra
  • Vergelijk
  • Kaarten
  • Dagkaart
  • Meer »
  • Info
  • Statistieken
  • Directe link
    Temp 6h Neerslag Wind  
 04:31     21:49    Daglengte: 17:18 Vandaag
08:00
11°
6.9 mm
8
14:00
13°
2.8 mm
11
20:00
11°
 
10
 04:30     21:50    Daglengte: 17:20 Morgen
02:00
 
7
08:00
10°
2.0 mm
7
14:00
12°
 
7
20:00
11°
2.3 mm
7
 04:28     21:52    Daglengte: 17:24 Zaterdag 28 Mei
02:00
10°
14.4 mm
4
08:00
12°
3.4 mm
5
14:00
16°
3.4 mm
5
20:00
15°
 
3
 04:27     21:54    Daglengte: 17:27 Zondag 29 Mei
02:00
10°
 
2
Locatie info
Region: Västra Götalands län
Latitude: 57.6547°N
Longitude: 12.0119°E
9 masl
Postcode: 431 31
Temp/Neerslag /Baro Onweer/Dauwpunt
    Temp Baro 1h Neerslag Dauwpunt Wind UV Bewolking  
 04:31     21:49    Daglengte: 17:18 Vandaag
07:00
11°
1001.7 hPa 2.3 mm
82%
9.2°
7
Windvlaag: 6.6 m/s
60%
08:00
11°
1002.0 hPa 1.4 mm
82%
9.2°
8
Windvlaag: 6.8 m/s
25%
09:00
12°
1002.3 hPa 1.3 mm
80%
8.8°
8
Windvlaag: 6.6 m/s
18%
10:00
12°
1002.8 hPa 1.5 mm
82%
7.9°
9
Windvlaag: 5.5 m/s
49%
11:00
12°
1003.3 hPa
76%
8.3°
9
Windvlaag: 4 m/s
20%
12:00
12°
1003.8 hPa
37%
8.4°
10
Windvlaag: 3.8 m/s
10%
13:00
13°
1004.4 hPa
72%
8.1°
10
Windvlaag: 4.1 m/s
21%
14:00
13°
1004.8 hPa
22%
7.6°
11
Windvlaag: 3.9 m/s
6%
15:00
13°
1005.3 hPa
16%
7.2°
10
Windvlaag: 3.8 m/s
3%
16:00
13°
1005.7 hPa
14%
7.0°
10
Windvlaag: 4.2 m/s
3%
17:00
13°
1005.9 hPa
14%
6.9°
10
Windvlaag: 4.2 m/s
2%
18:00
12°
1005.9 hPa
14%
6.7°
10
Windvlaag: 4.3 m/s
2%
19:00
12°
1006.2 hPa
14%
6.1°
10
Windvlaag: 4.4 m/s
2%
20:00
11°
1006.2 hPa
14%
5.7°
10
Windvlaag: 4 m/s
2%
21:00
11°
1006.1 hPa
14%
5.4°
9
Windvlaag: 3.3 m/s
2%
22:00
10°
1006.1 hPa
14%
4.9°
9
Windvlaag: 3.2 m/s
3%
23:00
10°
Voelt als: 6.6°
1006.2 hPa
14%
5.0°
8
Windvlaag: 2.9 m/s
4%
 04:30     21:50    Daglengte: 17:20 Morgen
00:00
10°
Voelt als: 6.4°
1005.9 hPa
17%
5.4°
8
Windvlaag: 3.6 m/s
5%
01:00
10°
Voelt als: 6.4°
1005.5 hPa
17%
5.3°
7
Windvlaag: 4.3 m/s
17%
02:00
Voelt als: 6.4°
1004.8 hPa
23%
5.0°
7
Windvlaag: 4.6 m/s
22%
03:00
Voelt als: 6.6°
1004.0 hPa
20%
5.2°
6
Windvlaag: 4.6 m/s
20%
04:00
Voelt als: 6.6°
1003.3 hPa
77%
6.5°
5
Windvlaag: 5 m/s
56%
05:00
Voelt als: 6.8°
1002.6 hPa
82%
6.9°
4
Windvlaag: 4.7 m/s
81%
06:00
Voelt als: 6.9°
1002.3 hPa 2.0 mm
82%
7.1°
5
Windvlaag: 2.3 m/s
38%
07:00
10°
Voelt als: 6.8°
1002.2 hPa
80%
7.2°
6
Windvlaag: 0.9 m/s
37%
08:00
10°
1002.4 hPa
82%
7.1°
7
Windvlaag: 0.1 m/s
33%
09:00
11°
1002.6 hPa
29%
6.2°
7
Windvlaag: -0.3 m/s
32%
10:00
12°
1002.6 hPa
19%
5.7°
8
Windvlaag: -0.3 m/s
8%
11:00
12°
1002.5 hPa
24%
5.8°
8
Windvlaag: 0.6 m/s
7%
12:00
12°
1002.4 hPa
66%
5.4°
8
Windvlaag: 0.5 m/s
5%
13:00
12°
1002.2 hPa
33%
5.9°
8
Windvlaag: 2.1 m/s
7%
14:00
12°
1002.0 hPa
36%
6.5°
7
Windvlaag: 2.1 m/s
5%
15:00
12°
1001.9 hPa
72%
6.5°
7
Windvlaag: 2 m/s
15%
16:00
13°
1001.5 hPa
77%
6.7°
7
Windvlaag: 1.5 m/s
17%
17:00
12°
1001.4 hPa 2.3 mm
82%
6.5°
8
Windvlaag: 1.2 m/s
17%
18:00
12°
1001.0 hPa
77%
7.2°
8
Windvlaag: 1.9 m/s
19%
19:00
12°
1001.0 hPa
26%
7.7°
7
Windvlaag: 1.9 m/s
8%
20:00
11°
1001.1 hPa
18%
8.4°
7
Windvlaag: 1.8 m/s
10%
21:00
11°
1001.2 hPa
18%
6.8°
6
Windvlaag: 1.6 m/s
21%
22:00
10°
1001.2 hPa
33%
6.6°
6
Windvlaag: 1.1 m/s
66%
23:00
10°
Voelt als: 7.8°
999.7 hPa 3.5 mm
100%
4.1°
4
Windvlaag: 1.2 m/s
99%
 04:28     21:52    Daglengte: 17:24 Zaterdag 28 Mei
00:00
10°
Voelt als: 7.7°
999.9 hPa 4.0 mm
100%
3.9°
4
Windvlaag: -1.7 m/s
95%
01:00
10°
1000.3 hPa 3.5 mm
100%
5.7°
5
Windvlaag: -3.6 m/s
87%
02:00
10°
1000.6 hPa 3.4 mm
100%
4.4°
4
Windvlaag: -3.3 m/s
84%
03:00
10°
Voelt als: 7.5°
1000.8 hPa 3.4 mm
85%
4.9°
4
Windvlaag: -3.2 m/s
74%
04:00
Voelt als: 6.9°
1001.1 hPa
21%
4.0°
4
Windvlaag: -3.5 m/s
84%
05:00
Voelt als: 6.8°
1001.5 hPa
21%
2.8°
4
Windvlaag: -3.7 m/s
97%
06:00
10°
Voelt als: 7.5°
1002.1 hPa
21%
3.0°
4
Windvlaag: -3.9 m/s
86%
07:00
11°
1002.6 hPa
21%
3.2°
4
Windvlaag: -3.6 m/s
88%
08:00
12°
1003.1 hPa
22%
3.8°
5
Windvlaag: -3.4 m/s
80%
09:00
12°
1003.6 hPa
23%
3.9°
5
Windvlaag: -3.9 m/s
76%
10:00
13°
1004.0 hPa
21%
4.3°
5
Windvlaag: -4.6 m/s
61%
11:00
14°
1004.3 hPa
21%
4.9°
5
Windvlaag: -4.7 m/s
66%
12:00
15°
1004.6 hPa
21%
6.2°
5
Windvlaag: -4.6 m/s
92%
13:00
16°
1005.1 hPa 3.4 mm
21%
5.3°
5
Windvlaag: -5.7 m/s
90%
14:00
16°
1005.5 hPa
28%
4.7°
5
Windvlaag: -5.6 m/s
87%
15:00
16°
1005.8 hPa
38%
4.1°
5
Windvlaag: -5.6 m/s
86%
16:00
16°
1006.2 hPa
27%
4.8°
5
Windvlaag: -5.3 m/s
67%
17:00
16°
1006.5 hPa
30%
5.1°
5
Windvlaag: -5 m/s
71%
18:00
16°
1007.0 hPa
37%
4.9°
5
Windvlaag: -5 m/s
73%
19:00
15°
1007.1 hPa
72%
3.6°
3
Windvlaag: -4.1 m/s
52%
20:00
15°
1007.3 hPa
72%
4.6°
3
Windvlaag: -1.4 m/s
48%
21:00
13°
1007.6 hPa
21%
5.4°
3
Windvlaag: 1.8 m/s
17%
22:00
12°
1007.7 hPa
21%
5.3°
2
Windvlaag: 1.6 m/s
49%
23:00
12°
1007.9 hPa
21%
4.4°
2
Windvlaag: 1 m/s
61%
 04:27     21:54    Daglengte: 17:27 Zondag 29 Mei
00:00
11°
1009.1 hPa
21%
4.1°
2
Windvlaag: 10.7 m/s
58%
01:00
11°
1009.3 hPa
21%
3.8°
2
Windvlaag: 10.9 m/s
55%
02:00
10°
1009.5 hPa
21%
4.2°
2
Windvlaag: 8.9 m/s
61%
03:00
Voelt als: 6.3°
1005.0 hPa 9.9 mm
100%
2.9°
3
Windvlaag: 8.8 m/s
8%
04:00
Voelt als: 5.4°
1005.2 hPa 9.9 mm
100%
1.7°
3
Windvlaag: 8.8 m/s
0%
05:00
Voelt als: 5.1°
1005.2 hPa 9.9 mm
100%
0.8°
3
Windvlaag: 6.4 m/s
0%
06:00
Voelt als: 7.1°
1005.2 hPa 9.9 mm
100%
0.5°
3
Windvlaag: 4.4 m/s
0%
Temp/Neerslag /Baro Onweer/Dauwpunt
    Temp Baro Neerslag Dauwpunt Wind Bewolking  
 04:31     21:49    Daglengte: 17:18 Vandaag
08:00
11°
1002.0 hPa 6.9 mm 9.2°
8
25%
11:00
12°
1003.3 hPa 2.8 mm 8.3°
9
20%
14:00
13°
1004.8 hPa   7.6°
11
6%
17:00
13°
1005.9 hPa   6.9°
10
2%
20:00
11°
1006.2 hPa   5.7°
10
2%
23:00
10°
Voelt als: 6.6°
1006.2 hPa   5.0°
8
4%
 04:30     21:50    Daglengte: 17:20 Morgen
02:00
Voelt als: 6.4°
1004.8 hPa   5.0°
7
22%
05:00
Voelt als: 6.8°
1002.6 hPa   6.9°
4
81%
08:00
10°
1002.4 hPa 2.0 mm 7.1°
7
33%
11:00
12°
1002.5 hPa   5.8°
8
7%
14:00
12°
1002.0 hPa   6.5°
7
5%
17:00
12°
1001.4 hPa 2.3 mm 6.5°
8
17%
20:00
11°
1001.1 hPa   8.4°
7
10%
23:00
10°
Voelt als: 7.8°
999.7 hPa 3.5 mm 4.1°
4
99%
 04:28     21:52    Daglengte: 17:24 Zaterdag 28 Mei
02:00
10°
1000.6 hPa 10.9 mm 4.4°
4
84%
05:00
Voelt als: 6.8°
1001.5 hPa 3.4 mm 2.8°
4
97%
08:00
12°
1003.1 hPa   3.8°
5
80%
11:00
14°
1004.3 hPa   4.9°
5
66%
14:00
16°
1005.5 hPa 3.4 mm 4.7°
5
87%
17:00
16°
1006.5 hPa   5.1°
5
71%
20:00
15°
1007.3 hPa   4.6°
3
48%
23:00
12°
1007.9 hPa   4.4°
2
61%
 04:27     21:54    Daglengte: 17:27 Zondag 29 Mei
02:00
10°
1009.5 hPa   4.2°
2
61%
05:00
Voelt als: 5.1°
1005.2 hPa 29.6 mm 0.8°
3
0%
08:00
11°
1005.2 hPa 29.6 mm 1.1°
2
0%
11:00
14°
1007.0 hPa 16.5 mm 3.2°
4
23%
14:00
15°
1006.8 hPa 16.6 mm 5.1°
4
1%
17:00
15°
1007.1 hPa 16.7 mm 7.1°
3
9%
20:00
13°
1007.1 hPa 16.8 mm 7.0°
2
12%
23:00
1008.0 hPa 16.8 mm 7.1°
1
21%
 04:26     21:55    Daglengte: 17:29 Maandag 30 Mei
02:00
Voelt als: 8.1°
1008.1 hPa 16.8 mm 6.7°
1
22%
05:00
Voelt als: 6.9°
1008.2 hPa 16.8 mm 5.5°
1
16%
08:00
12°
1009.1 hPa 16.8 mm 5.0°
1
16%
11:00
14°
1009.6 hPa 16.8 mm 5.0°
3
23%
14:00
14°
1010.6 hPa 17.0 mm 7.0°
3
24%
17:00
13°
1010.9 hPa 17.2 mm 7.7°
1
22%
20:00
12°
1010.9 hPa 17.2 mm 7.5°
1
26%
23:00
10°
1011.2 hPa 17.2 mm 7.3°
2
26%
 04:24     21:57    Daglengte: 17:33 Dinsdag 31 Mei
02:00
10°
Voelt als: 8.5°
1011.9 hPa 17.2 mm 7.7°
2
25%
05:00
Voelt als: 7.2°
1012.0 hPa 9.1 mm 7.6°
3
26%
08:00
10°
1012.1 hPa 9.0 mm 7.2°
3
26%
11:00
12°
1013.0 hPa 9.8 mm 7.8°
3
22%
14:00
14°
1013.0 hPa 18.7 mm 5.5°
3
18%
17:00
14°
1012.8 hPa 18.7 mm 5.3°
3
1%
20:00
13°
1013.0 hPa 18.7 mm 7.1°
2
1%
23:00
Voelt als: 9.3°
1013.1 hPa 18.7 mm 7.5°
1
1%
 04:23     21:58    Daglengte: 17:35 Woensdag 01 Jun
02:00
Voelt als: 8.0°
1013.1 hPa 18.7 mm 6.9°
1
1%
05:00
Voelt als: 7.4°
1013.2 hPa 18.7 mm 6.4°
1
2%
08:00
12°
1015.0 hPa 18.7 mm 8.4°
1
1%
11:00
14°
1014.7 hPa 18.8 mm 7.5°
3
1%
14:00
15°
1015.8 hPa 18.8 mm 7.3°
3
0%
17:00
15°
1016.1 hPa 18.8 mm 7.9°
3
0%
20:00
13°
1016.1 hPa 18.8 mm 8.7°
2
0%
23:00
10°
1017.0 hPa 18.8 mm 8.5°
0
1%
 04:22     22:00    Daglengte: 17:38 Donderdag 02 Jun
02:00
Voelt als: 9.2°
1017.4 hPa 18.8 mm 8.5°
1
0%
05:00
10°
Voelt als: 9.1°
1017.5 hPa   8.7°
2
0%
08:00
14°
1017.9 hPa 37.6 mm 7.0°
3
0%
14:00
17°
1018.3 hPa 37.6 mm 3.9°
3
0%
20:00
15°
1017.6 hPa 37.6 mm 8.6°
1
1%
 04:21     22:01    Daglengte: 17:40 Vrijdag 03 Jun
02:00
Voelt als: 8.1°
1017.8 hPa 37.6 mm 5.2°
3
1%
08:00
15°
1017.8 hPa 37.6 mm 3.0°
2
0%
14:00
21°
1017.3 hPa 37.6 mm 3.2°
2
1%
20:00
17°
1017.6 hPa 37.6 mm 8.6°
2
1%
 04:20     22:03    Daglengte: 17:43 Zaterdag 04 Jun
02:00
14°
1019.7 hPa 37.6 mm 7.1°
3
1%
08:00
17°
1021.4 hPa 37.6 mm 10.5°
3
1%
14:00
21°
1022.4 hPa 37.6 mm 8.1°
3
1%
20:00
17°
1024.3 hPa 37.6 mm 9.5°
2
1%
 04:19     22:04    Daglengte: 17:45 Zondag 05 Jun
02:00
11°
1015.1 hPa 0.3 mm 8.4°
1
49%
08:00
13°
1014.8 hPa 0.3 mm 8.0°
1
50%
14:00
17°
1014.6 hPa 0.6 mm 8.6°
2
56%
20:00
15°
1013.9 hPa 0.8 mm 9.6°
1
61%
 04:18     22:05    Daglengte: 17:47 Maandag 06 Jun
02:00
12°
1014.4 hPa 0.2 mm 8.5°
0
54%
08:00
14°
1014.2 hPa 0.3 mm 9.0°
1
53%
14:00
17°
1013.8 hPa 0.5 mm 9.4°
2
57%
20:00
16°
1012.9 hPa 0.7 mm 10.5°
1
58%
 04:17     22:06    Daglengte: 17:49 Dinsdag 07 Jun
02:00
12°
1012.9 hPa 0.2 mm 8.9°
0
45%
08:00
14°
1012.3 hPa 0.7 mm 9.6°
1
65%
14:00
17°
1011.5 hPa 1.4 mm 9.9°
2
71%
20:00
15°
1010.8 hPa 0.8 mm 10.3°
2
72%
 04:17     22:07    Daglengte: 17:50 Woensdag 08 Jun
02:00
12°
1011.0 hPa 0.4 mm 9.2°
1
60%
08:00
14°
1010.5 hPa 0.5 mm 9.8°
1
64%
14:00
17°
1010.4 hPa 0.8 mm 10.6°
3
60%
20:00
16°
1010.0 hPa 1.3 mm 10.9°
2
57%
 04:16     22:08    Daglengte: 17:52 Donderdag 09 Jun
02:00
12°
1010.4 hPa 0.4 mm 9.7°
1
60%
08:00
14°
1010.4 hPa 0.2 mm 9.7°
2
63%
14:00
17°
1010.4 hPa 0.4 mm 9.5°
3
63%
20:00
16°
1010.0 hPa 0.4 mm 10.1°
3
58%
 04:15     22:09    Daglengte: 17:54 Vrijdag 10 Jun
02:00
13°
1010.6 hPa 0.3 mm 9.6°
2
44%
  CAPE Lifted Index Hail Supercell Tornado SRH 3km CL BTM PRES CL TOP PRES Swiss DWD icon SMHI TS
 04:31     21:49    Daglengte: 17:18 Vandaag
07:00 345 J/kg -1.0 K 0 % 0 % 0 % 0 m²/s² 0 0 -0.49 80
08:00 317 J/kg 0.1 K 0 % 0 % 0 % 0 m²/s² 0 0 1.21 80
09:00 253 J/kg 0.8 K 0 % 0 % 0 % 0 m²/s² 0 0 2.96 2
10:00 238 J/kg 1.1 K 0 % 0 % 0 % 0 m²/s² 0 0 2.45 80
11:00 270 J/kg 1.1 K 0 % 0 % 0 % 0 m²/s² 0 0 2.93 2
12:00 213 J/kg 1.7 K 0 % 0 % 0 % 0 m²/s² 0 0 3.32 2
13:00 142 J/kg 2.4 K 0 % 0 % 0 % 0 m²/s² 0 0 3.99 2
14:00 71 J/kg 3.4 K 0 % 0 % 0 % 0 m²/s² 0 0 6.25 1
15:00 55 J/kg 3.9 K 0 % 0 % 0 % 0 m²/s² 0 0 8.97 0
16:00 52 J/kg 4.1 K 0 % 0 % 0 % 0 m²/s² 0 0 10.28 1
17:00 45 J/kg 4.2 K 0 % 0 % 0 % 0 m²/s² 0 0 11.28 1
18:00 39 J/kg 4.7 K 0 % 0 % 0 % 0 m²/s² 0 0 12.65 1
19:00 43 J/kg 4.9 K 0 % 0 % 0 % 0 m²/s² 0 0 13.96 1
20:00 33 J/kg 4.7 K 0 % 0 % 0 % 0 m²/s² 0 0 14.72 1
21:00 5 J/kg 4.5 K 0 % 0 % 0 % 0 m²/s² 0 0 13.59 2
22:00 1 J/kg 4.3 K 0 % 0 % 0 % 0 m²/s² 0 0 13.84 2
23:00 2 J/kg 3.8 K 0 % 0 % 0 % 0 m²/s² 0 0 12.86 2
 04:30     21:50    Daglengte: 17:20 Morgen
00:00 13 J/kg 2.9 K 0 % 0 % 0 % 0 m²/s² 0 0 11.54 2
01:00 59 J/kg 1.9 K 0 % 0 % 0 % 0 m²/s² 0 0 10.51 3
02:00 92 J/kg 1.5 K 0 % 0 % 0 % 0 m²/s² 0 0 6.54 2
03:00 116 J/kg 0.8 K 0 % 0 % 0 % 0 m²/s² 0 0 2.75 2
04:00 300 J/kg -0.7 K 0 % 0 % 0 % 0 m²/s² 0 0 -0.28 3
05:00 218 J/kg -0.5 K 0 % 0 % 0 % 0 m²/s² 0 0 -0.08 80
06:00 178 J/kg -0.1 K 0 % 0 % 0 % 0 m²/s² 0 0 1.43 80
07:00 96 J/kg 0.7 K 0 % 0 % 0 % 0 m²/s² 0 0 2.74 3
08:00 35 J/kg 1.7 K 0 % 0 % 0 % 0 m²/s² 0 0 3.02 3
09:00 157 J/kg -0.1 K 0 % 0 % 0 % 0 m²/s² 0 0 0.89 3
10:00 179 J/kg -0.3 K 0 % 0 % 0 % 0 m²/s² 0 0 1.74 2
11:00 267 J/kg -0.7 K 0 % 0 % 0 % 0 m²/s² 0 0 1.73 2
12:00 57 J/kg 0.6 K 0 % 0 % 0 % 0 m²/s² 0 0 2.7 2
13:00 87 J/kg 0.7 K 0 % 0 % 0 % 0 m²/s² 0 0 2.17 2
14:00 131 J/kg 0.1 K 0 % 0 % 0 % 0 m²/s² 0 0 1.45 1
15:00 54 J/kg 0.8 K 0 % 0 % 0 % 0 m²/s² 0 0 2.15 2
16:00 152 J/kg 0.0 K 0 % 0 % 0 % 0 m²/s² 0 0 1.56 2
17:00 306 J/kg -1.0 K 0 % 0 % 0 % 0 m²/s² 0 0 1.43 80
18:00 381 J/kg -1.5 K 0 % 0 % 0 % 0 m²/s² 0 0 1.47 3
19:00 302 J/kg -1.1 K 0 % 0 % 0 % 0 m²/s² 0 0 1.78 1
20:00 249 J/kg -0.7 K 0 % 0 % 0 % 0 m²/s² 0 0 2.78 2
21:00 166 J/kg -0.2 K 0 % 0 % 0 % 0 m²/s² 0 0 0.85 3
22:00 188 J/kg -0.5 K 0 % 0 % 0 % 0 m²/s² 0 0 -0.11 3
23:00 44 J/kg 0.7 K 0 % 0 % 0 % 0 m²/s² 0 0 1.09 61
 04:28     21:52    Daglengte: 17:24 Zaterdag 28 Mei
00:00 0 J/kg 0.4 K 0 % 0 % 0 % 0 m²/s² 0 0 1.15 61
01:00 32 J/kg 0.8 K 0 % 0 % 0 % 0 m²/s² 0 0 1.55 61
02:00 0 J/kg 3.2 K 0 % 0 % 0 % 0 m²/s² 0 0 4.25 61
03:00 0 J/kg 4.3 K 0 % 0 % 0 % 0 m²/s² 0 0 5.32 2
04:00 1 J/kg 4.0 K 0 % 0 % 0 % 0 m²/s² 0 0 4.9 3
05:00 0 J/kg 3.7 K 0 % 0 % 0 % 0 m²/s² 0 0 4.24 3
06:00 0 J/kg 3.9 K 0 % 0 % 0 % 0 m²/s² 0 0 4.89 3
07:00 0 J/kg 4.0 K 0 % 0 % 0 % 0 m²/s² 0 0 5.65 3
08:00 0 J/kg 4.2 K 0 % 0 % 0 % 0 m²/s² 0 0 5.34 3
09:00 0 J/kg 4.7 K 0 % 0 % 0 % 0 m²/s² 0 0 5.78 3
10:00 0 J/kg 4.8 K 0 % 0 % 0 % 0 m²/s² 0 0 6.18 3
11:00 0 J/kg 4.5 K 0 % 0 % 0 % 0 m²/s² 0 0 6.15 3
12:00 0 J/kg 4.6 K 0 % 0 % 0 % 0 m²/s² 0 0 5.44 3
13:00 7 J/kg 4.4 K 0 % 0 % 0 % 0 m²/s² 0 0 5.39 3
14:00 6 J/kg 4.6 K 0 % 0 % 0 % 0 m²/s² 0 0 6.1 3
15:00 5 J/kg 4.2 K 0 % 0 % 0 % 0 m²/s² 0 0 5.64 3
16:00 8 J/kg 3.8 K 0 % 0 % 0 % 0 m²/s² 0 0 5.12 3
17:00 11 J/kg 3.2 K 0 % 0 % 0 % 0 m²/s² 0 0 4.58 3
18:00 14 J/kg 2.9 K 0 % 0 % 0 % 0 m²/s² 0 0 4.13 3
19:00 3 J/kg 2.9 K 0 % 0 % 0 % 0 m²/s² 0 0 4.04 3
20:00 5 J/kg 2.5 K 0 % 0 % 0 % 0 m²/s² 0 0 3.79 3
21:00 0 J/kg 2.1 K 0 % 0 % 0 % 0 m²/s² 0 0 3.69 2
22:00 0 J/kg 2.2 K 0 % 0 % 0 % 0 m²/s² 0 0 4.03 2
23:00 0 J/kg 1.7 K 0 % 0 % 0 % 0 m²/s² 0 0 3.92 2
 04:27     21:54    Daglengte: 17:27 Zondag 29 Mei
00:00 0 J/kg 2.5 K 0 % 0 % 0 % 0 m²/s² 0 0 5.77 2
01:00 0 J/kg 3.0 K 0 % 0 % 0 % 0 m²/s² 0 0 6.45 2
02:00 0 J/kg 4.1 K 0 % 0 % 0 % 0 m²/s² 0 0 8.45 3
03:00 0 J/kg 4.7 K 0 % 0 % 0 % 0 m²/s² 0 0 9.89
04:00 0 J/kg 5.1 K 0 % 0 % 0 % 0 m²/s² 0 0 10.41
05:00 0 J/kg 5.1 K 0 % 0 % 0 % 0 m²/s² 0 0 10.41
06:00 0 J/kg 4.9 K 0 % 0 % 0 % 0 m²/s² 0 0 10.06
Temp Baro Wind Neerslag
  EWN Forecast EWN WRFDA DWD ICON FMI HIRLAM MET Norway GFSWXSIM
 04:31     21:49    Daglengte: 17:18 Vandaag
08:00 11.5° 1002.0 hPa 7.8 m/s 6.9 mm 11.8° 1000.4 hPa 8.7 m/s 14.1 mm 11.6° 1002.7 hPa 5.8 m/s 5.1 mm 11.8° 1000.4 hPa 8.1 m/s 0.0 mm 11.3° 1001.7 hPa 8.2 m/s 12.9° 1002.0 hPa 9.0 m/s 1.3 mm
11:00 12.1° 1003.3 hPa 9.5 m/s 2.8 mm 12.7° 1002.8 hPa 9.8 m/s 16.7 mm 12.7° 1004.1 hPa 7.6 m/s 0.7 mm 12.0° 1001.8 hPa 10.0 m/s 0.0 mm 12.4° 1003.5 hPa 9.3 m/s 15.0° 1004.0 hPa 9.0 m/s 0.0 mm
14:00 13.0° 1004.8 hPa 10.6 m/s 0.0 mm 13.5° 1004.3 hPa 10.8 m/s 17.5 mm 13.9° 1005.4 hPa 8.4 m/s 0.0 mm 13.0° 1003.8 hPa 12.0 m/s 0.0 mm 13.6° 1004.9 hPa 10.1 m/s 14.4° 1005.0 hPa 10.0 m/s 0.0 mm
17:00 12.8° 1005.9 hPa 10.4 m/s 0.0 mm 13.0° 1005.2 hPa 10.3 m/s 17.5 mm 13.1° 1006.2 hPa 8.2 m/s 0.0 mm 13.0° 1005.2 hPa 12.0 m/s 0.0 mm 13.1° 1005.4 hPa 10.2 m/s 13.5° 1006.0 hPa 10.0 m/s 0.0 mm
20:00 11.2° 1006.2 hPa 9.7 m/s 0.0 mm 11.4° 1005.5 hPa 9.4 m/s 17.5 mm 11.2° 1005.8 hPa 7.1 m/s 0.0 mm 11.5° 1006.5 hPa 11.8 m/s 0.0 mm 11.2° 1005.6 hPa 9.8 m/s 11.9° 1006.0 hPa 10.0 m/s 0.0 mm
23:00 10.0° 1006.2 hPa 8.1 m/s 0.0 mm 9.3° 1004.9 hPa 6.7 m/s 17.5 mm 10.0° 1005.3 hPa 6.1 m/s 0.0 mm 10.7° 1007.6 hPa 9.9 m/s 0.0 mm 9.9° 1005.7 hPa 9.4 m/s 9.2° 1006.0 hPa 10.0 m/s 0.0 mm
 04:30     21:50    Daglengte: 17:20 Morgen
02:00 9.5° 1004.8 hPa 6.7 m/s 0.0 mm 9.6° 1003.0 hPa 5.6 m/s 17.5 mm 9.3° 1003.7 hPa 4.4 m/s 0.0 mm 10.5° 1006.9 hPa 7.9 m/s 0.0 mm 9.4° 1004.0 hPa 7.7 m/s 7.5° 1004.0 hPa 8.0 m/s 0.0 mm
05:00 9.2° 1002.6 hPa 4.4 m/s 0.0 mm 9.0° 999.9 hPa 3.0 m/s 20.9 mm 9.0° 1001.5 hPa 3.6 m/s 0.9 mm 9.5° 1005.3 hPa 5.8 m/s 0.0 mm 8.9° 1001.1 hPa 5.5 m/s 7.0° 1001.0 hPa 6.0 m/s 0.0 mm
08:00 10.2° 1002.4 hPa 6.8 m/s 2.0 mm 9.3° 1000.4 hPa 7.3 m/s 28.7 mm 10.3° 1001.7 hPa 6.4 m/s 0.5 mm 10.3° 1004.7 hPa 6.7 m/s 0.0 mm 9.5° 1000.8 hPa 9.4 m/s 6.9° 1001.0 hPa 10.0 m/s 3.5 mm
11:00 12.0° 1002.5 hPa 7.9 m/s 0.0 mm 11.6° 1000.9 hPa 8.7 m/s 29.3 mm 11.6° 1002.2 hPa 6.6 m/s 0.0 mm 12.1° 1004.2 hPa 8.1 m/s 0.0 mm 11.6° 1001.4 hPa 9.3 m/s 8.7° 1002.0 hPa 10.0 m/s 0.3 mm
14:00 12.2° 1002.0 hPa 7.5 m/s 0.0 mm 12.3° 1000.8 hPa 8.5 m/s 29.5 mm 12.1° 1001.6 hPa 6.4 m/s 0.0 mm 12.1° 1003.5 hPa 8.1 m/s 0.0 mm 12.1° 1001.2 hPa 8.8 m/s 11.7° 1002.0 hPa 9.0 m/s 0.0 mm
17:00 11.7° 1001.4 hPa 7.6 m/s 2.3 mm 12.3° 1000.0 hPa 8.6 m/s 29.5 mm 11.6° 1001.5 hPa 5.4 m/s 0.2 mm 12.6° 1002.7 hPa 9.0 m/s 0.0 mm 11.8° 1000.1 hPa 8.7 m/s 12.4° 1000.0 hPa 9.0 m/s 0.0 mm
20:00 11.4° 1001.1 hPa 6.6 m/s 0.0 mm 11.4° 999.1 hPa 6.9 m/s 29.6 mm 11.4° 1001.4 hPa 5.5 m/s 0.0 mm 11.5° 1001.7 hPa 7.0 m/s 0.0 mm 10.9° 999.2 hPa 6.2 m/s 11.4° 999.0 hPa 7.0 m/s 0.0 mm
23:00 9.9° 999.7 hPa 4.4 m/s 3.5 mm 12.0° 998.6 hPa 4.5 m/s 29.6 mm 9.4° 1001.9 hPa 5.3 m/s 0.4 mm 8.3° 1000.4 hPa 5.6 m/s 9.7° 1001.0 hPa 7.0 m/s 0.2 mm
 04:28     21:52    Daglengte: 17:24 Zaterdag 28 Mei
02:00 10.0° 1000.6 hPa 4.3 m/s 10.9 mm 10.7° 999.1 hPa 6.1 m/s 29.6 mm 10.3° 1002.8 hPa 4.1 m/s 1.5 mm 9.5° 1000.6 hPa 5.4 m/s 8.1° 1001.0 hPa 7.0 m/s 1.8 mm
05:00 9.0° 1001.5 hPa 3.9 m/s 3.4 mm 11.5° 999.5 hPa 5.9 m/s 29.6 mm 8.7° 1003.9 hPa 2.4 m/s 0.0 mm 8.6° 1002.0 hPa 3.9 m/s 8.2° 1002.0 hPa 5.0 m/s 0.3 mm
08:00 11.8° 1003.1 hPa 4.8 m/s 0.0 mm 13.4° 1000.5 hPa 6.4 m/s 29.6 mm 12.3° 1004.7 hPa 4.8 m/s 0.0 mm 10.9° 1003.5 hPa 4.3 m/s 9.0° 1004.0 hPa 5.0 m/s 0.0 mm
11:00 14.4° 1004.3 hPa 4.9 m/s 0.0 mm 16.0° 1002.1 hPa 6.0 m/s 29.6 mm 14.4° 1006.2 hPa 5.0 m/s 0.0 mm 14.9° 1004.2 hPa 5.5 m/s 10.2° 1005.0 hPa 6.0 m/s 0.0 mm
14:00 16.0° 1005.5 hPa 5.2 m/s 3.4 mm 17.9° 1003.0 hPa 8.0 m/s 29.6 mm 16.4° 1006.9 hPa 4.9 m/s 0.0 mm 15.4° 1005.8 hPa 6.1 m/s 11.9° 1006.0 hPa 6.0 m/s 0.0 mm
17:00 16.1° 1006.5 hPa 4.9 m/s 0.0 mm 18.2° 1003.7 hPa 7.2 m/s 29.6 mm 16.4° 1008.1 hPa 4.6 m/s 0.0 mm 15.5° 1006.5 hPa 3.6 m/s 12.9° 1007.0 hPa 4.0 m/s 0.0 mm
20:00 14.6° 1007.3 hPa 3.3 m/s 0.0 mm 17.1° 1003.8 hPa 4.3 m/s 29.6 mm 14.4° 1009.4 hPa 3.5 m/s 0.0 mm 13.9° 1006.9 hPa 1.7 m/s 12.7° 1007.0 hPa 2.0 m/s 0.0 mm
23:00 11.6° 1007.9 hPa 2.1 m/s 0.0 mm 12.5° 1003.9 hPa 3.0 m/s 29.6 mm 11.6° 1010.1 hPa 1.7 m/s 0.0 mm 10.2° 1006.9 hPa 1.1 m/s 9.9° 1007.0 hPa 1.0 m/s 0.0 mm
 04:27     21:54    Daglengte: 17:27 Zondag 29 Mei
02:00 10.2° 1009.5 hPa 2.2 m/s 0.0 mm 9.1° 1004.7 hPa 2.8 m/s 29.6 mm 10.5° 1010.7 hPa 2.1 m/s 0.0 mm 9.4° 1006.9 hPa 1.6 m/s 9.4° 1007.0 hPa 1.0 m/s 0.2 mm
05:00 7.1° 1005.2 hPa 2.8 m/s 29.6 mm 7.1° 1005.2 hPa 2.8 m/s 29.6 mm 9.0° 1006.9 hPa 4.5 m/s 9.3° 1007.0 hPa 5.0 m/s 0.3 mm
08:00 10.9° 1005.2 hPa 1.9 m/s 29.6 mm 10.9° 1005.2 hPa 1.9 m/s 29.6 mm 10.6° 1007.5 hPa 5.1 m/s 11.1° 1007.0 hPa 5.0 m/s 0.0 mm
11:00 14.1° 1007.0 hPa 4.0 m/s 16.5 mm 15.1° 1007.0 hPa 4.0 m/s 16.5 mm 13.8° 1007.0 hPa 4.0 m/s 0.0 mm
14:00 15.2° 1006.8 hPa 3.6 m/s 16.6 mm 15.2° 1006.8 hPa 3.1 m/s 16.6 mm 15.2° 1007.0 hPa 5.0 m/s 0.0 mm
17:00 14.5° 1007.1 hPa 3.3 m/s 16.7 mm 14.1° 1007.3 hPa 3.1 m/s 16.7 mm 15.7° 1007.0 hPa 4.0 m/s 0.0 mm
20:00 12.7° 1007.1 hPa 2.2 m/s 16.8 mm 12.2° 1007.5 hPa 2.6 m/s 16.8 mm 14.2° 1007.0 hPa 2.0 m/s 0.0 mm
23:00 9.5° 1008.0 hPa 0.6 m/s 16.8 mm 9.0° 1008.2 hPa 0.5 m/s 16.8 mm 10.8° 1008.0 hPa 1.0 m/s 0.0 mm
 04:26     21:55    Daglengte: 17:29 Maandag 30 Mei
02:00 8.1° 1008.1 hPa 1.1 m/s 16.8 mm 7.7° 1008.4 hPa 1.3 m/s 16.8 mm 9.5° 1008.0 hPa 1.0 m/s 0.0 mm
05:00 7.2° 1008.2 hPa 1.1 m/s 16.8 mm 6.6° 1008.7 hPa 1.5 m/s 16.8 mm 8.9° 1008.0 hPa 1.0 m/s 0.0 mm
08:00 11.9° 1009.1 hPa 1.2 m/s 16.8 mm 11.6° 1009.3 hPa 1.6 m/s 16.8 mm 12.5° 1009.0 hPa 1.0 m/s 0.0 mm
11:00 14.2° 1009.6 hPa 3.0 m/s 16.8 mm 14.8° 1009.5 hPa 3.0 m/s 16.8 mm 14.0° 1010.0 hPa 3.0 m/s 0.0 mm
14:00 13.8° 1010.6 hPa 3.0 m/s 17.0 mm 13.8° 1010.5 hPa 3.1 m/s 17.0 mm 14.0° 1011.0 hPa 3.0 m/s 0.0 mm
17:00 12.6° 1010.9 hPa 1.0 m/s 17.2 mm 12.1° 1010.9 hPa 1.0 m/s 17.2 mm 14.3° 1011.0 hPa 1.0 m/s 0.0 mm
20:00 12.4° 1010.9 hPa 1.2 m/s 17.2 mm 12.3° 1010.9 hPa 0.9 m/s 17.2 mm 12.9° 1011.0 hPa 2.0 m/s 0.0 mm
23:00 10.2° 1011.2 hPa 2.2 m/s 17.2 mm 9.9° 1011.8 hPa 2.0 m/s 17.2 mm 11.4° 1011.0 hPa 3.0 m/s 0.0 mm
 04:24     21:57    Daglengte: 17:33 Dinsdag 31 Mei
02:00 9.7° 1011.9 hPa 2.5 m/s 17.2 mm 9.4° 1011.9 hPa 2.3 m/s 17.2 mm 10.6° 1012.0 hPa 3.0 m/s 0.0 mm
05:00 8.8° 1012.0 hPa 2.7 m/s 9.1 mm 8.4° 1012.1 hPa 2.7 m/s 17.4 mm 10.0° 1012.0 hPa 3.0 m/s 0.7 mm
08:00 10.3° 1012.1 hPa 3.1 m/s 9.0 mm 11.5° 1012.4 hPa 3.4 m/s 17.6 mm 9.9° 1012.0 hPa 3.0 m/s 0.5 mm
11:00 11.6° 1013.0 hPa 3.1 m/s 9.8 mm 12.7° 1013.0 hPa 3.3 m/s 18.6 mm 11.2° 1013.0 hPa 3.0 m/s 1.1 mm
14:00 14.1° 1013.0 hPa 3.2 m/s 18.7 mm 14.3° 1013.0 hPa 3.8 m/s 18.7 mm 14.0° 1013.0 hPa 3.0 m/s 0.0 mm
17:00 14.3° 1012.8 hPa 3.1 m/s 18.7 mm 14.1° 1012.7 hPa 3.5 m/s 18.7 mm 15.0° 1013.0 hPa 3.0 m/s 0.0 mm
20:00 12.9° 1013.0 hPa 2.1 m/s 18.7 mm 12.5° 1012.9 hPa 2.3 m/s 18.7 mm 14.3° 1013.0 hPa 2.0 m/s 0.0 mm
23:00 9.3° 1013.1 hPa 1.0 m/s 18.7 mm 8.8° 1013.6 hPa 1.0 m/s 18.7 mm 10.9° 1013.0 hPa 1.0 m/s 0.0 mm
 04:23     21:58    Daglengte: 17:35 Woensdag 01 Jun
02:00 8.0° 1013.1 hPa 1.1 m/s 18.7 mm 7.7° 1013.6 hPa 1.3 m/s 18.7 mm 9.1° 1013.0 hPa 1.0 m/s 0.0 mm
05:00 7.5° 1013.2 hPa 1.0 m/s 18.7 mm 7.2° 1013.7 hPa 1.1 m/s 18.7 mm 8.5° 1013.0 hPa 1.0 m/s 0.0 mm
08:00 12.3° 1015.0 hPa 1.0 m/s 18.7 mm 12.2° 1015.0 hPa 1.2 m/s 18.7 mm 12.6° 1015.0 hPa 1.0 m/s 0.0 mm
11:00 14.5° 1014.7 hPa 3.1 m/s 18.8 mm 14.7° 1014.6 hPa 3.5 m/s 18.8 mm 14.4° 1015.0 hPa 3.0 m/s 0.0 mm
14:00 15.4° 1015.8 hPa 3.3 m/s 18.8 mm 15.4° 1015.7 hPa 4.4 m/s 18.8 mm 15.4° 1016.0 hPa 3.0 m/s 0.0 mm
17:00 15.0° 1016.1 hPa 3.3 m/s 18.8 mm 14.8° 1016.6 hPa 4.2 m/s 18.8 mm 15.5° 1016.0 hPa 3.0 m/s 0.0 mm
20:00 13.5° 1016.1 hPa 2.1 m/s 18.8 mm 13.4° 1016.6 hPa 2.6 m/s 18.8 mm 13.8° 1016.0 hPa 2.0 m/s 0.0 mm
23:00 10.0° 1017.0 hPa 0.2 m/s 18.8 mm 9.9° 1017.1 hPa 0.6 m/s 18.8 mm 10.6° 1017.0 hPa 0.0 m/s 0.0 mm
 04:22     22:00    Daglengte: 17:38 Donderdag 02 Jun
02:00 9.4° 1017.4 hPa 1.3 m/s 18.8 mm 9.4° 1017.4 hPa 1.3 m/s 18.8 mm
05:00 10.0° 1017.5 hPa 2.1 m/s 18.8 mm 10.0° 1017.5 hPa 2.1 m/s 18.8 mm
08:00 13.8° 1017.9 hPa 3.4 m/s 18.8 mm 13.8° 1017.9 hPa 3.4 m/s 18.8 mm
14:00 17.0° 1018.3 hPa 3.1 m/s 18.8 mm 17.0° 1018.3 hPa 3.1 m/s 18.8 mm
20:00 14.8° 1017.6 hPa 1.1 m/s 18.8 mm 14.8° 1017.6 hPa 1.1 m/s 18.8 mm
 04:21     22:01    Daglengte: 17:40 Vrijdag 03 Jun
02:00 9.4° 1017.8 hPa 2.5 m/s 18.8 mm 9.4° 1017.8 hPa 2.5 m/s 18.8 mm
08:00 15.3° 1017.8 hPa 2.0 m/s 18.8 mm 15.3° 1017.8 hPa 2.0 m/s 18.8 mm
14:00 21.1° 1017.3 hPa 2.4 m/s 18.8 mm 21.1° 1017.3 hPa 2.4 m/s 18.8 mm
20:00 17.1° 1017.6 hPa 2.0 m/s 18.8 mm 17.1° 1017.6 hPa 2.0 m/s 18.8 mm
 04:20     22:03    Daglengte: 17:43 Zaterdag 04 Jun
02:00 14.5° 1019.7 hPa 2.7 m/s 18.8 mm 14.5° 1019.7 hPa 2.7 m/s 18.8 mm
08:00 17.0° 1021.4 hPa 2.9 m/s 18.8 mm 17.0° 1021.4 hPa 2.9 m/s 18.8 mm
14:00 20.9° 1022.4 hPa 3.0 m/s 18.8 mm 20.9° 1022.4 hPa 3.0 m/s 18.8 mm
20:00 16.5° 1024.3 hPa 2.2 m/s 18.8 mm 16.5° 1024.3 hPa 2.2 m/s 18.8 mm
 04:19     22:04    Daglengte: 17:45 Zondag 05 Jun
02:00 11.4° 1015.1 hPa 0.7 m/s 0.3 mm
08:00 13.3° 1014.8 hPa 0.6 m/s 0.3 mm
14:00 16.9° 1014.6 hPa 1.9 m/s 0.6 mm
20:00 15.4° 1013.9 hPa 1.3 m/s 0.8 mm
 04:18     22:05    Daglengte: 17:47 Maandag 06 Jun
02:00 11.7° 1014.4 hPa 0.4 m/s 0.2 mm
08:00 13.6° 1014.2 hPa 0.6 m/s 0.3 mm
14:00 17.4° 1013.8 hPa 2.0 m/s 0.5 mm
20:00 15.9° 1012.9 hPa 1.2 m/s 0.7 mm
 04:17     22:06    Daglengte: 17:49 Dinsdag 07 Jun
02:00 12.1° 1012.9 hPa 0.4 m/s 0.2 mm
08:00 13.7° 1012.3 hPa 0.5 m/s 0.7 mm
14:00 16.9° 1011.5 hPa 2.2 m/s 1.4 mm
20:00 15.2° 1010.8 hPa 1.6 m/s 0.8 mm
 04:17     22:07    Daglengte: 17:50 Woensdag 08 Jun
02:00 12.0° 1011.0 hPa 1.0 m/s 0.4 mm
08:00 13.9° 1010.5 hPa 1.3 m/s 0.5 mm
14:00 17.2° 1010.4 hPa 2.8 m/s 0.8 mm
20:00 15.7° 1010.0 hPa 2.5 m/s 1.3 mm
 04:16     22:08    Daglengte: 17:52 Donderdag 09 Jun
02:00 12.5° 1010.4 hPa 1.2 m/s 0.4 mm
08:00 14.3° 1010.4 hPa 1.5 m/s 0.2 mm
14:00 17.3° 1010.4 hPa 2.8 m/s 0.4 mm
20:00 16.0° 1010.0 hPa 2.7 m/s 0.4 mm
 04:15     22:09    Daglengte: 17:54 Vrijdag 10 Jun
02:00 12.5° 1010.6 hPa 2.0 m/s 0.3 mm